Hourly Weather Rudziska

Today, 16 June, Wednesday

Time Temperature Precipitation Wind Pressure Humidity
00:00 +8°C° 0 mm 2 mps 750 mmHg 91%
01:00 +7°C° 0 mm 2 mps 750 mmHg 93%
02:00 +8°C° 0 mm 1 mps 750 mmHg 93%
03:00 +9°C° 0 mm 1 mps 750 mmHg 92%
04:00 +9°C° 0 mm 1 mps 750 mmHg 92%
05:00 +11°C° 0 mm 1 mps 750 mmHg 84%
06:00 +13°C° 0 mm 1 mps 750 mmHg 75%
07:00 +15°C° 0 mm 1 mps 750 mmHg 67%
08:00 +18°C° 0 mm 1 mps 750 mmHg 61%
09:00 +19°C° 0 mm 1 mps 751 mmHg 55%
10:00 +21°C° 0 mm 1 mps 751 mmHg 50%
11:00 +20°C° 0 mm 2 mps 751 mmHg 48%
12:00 +21°C° 0 mm 2 mps 751 mmHg 47%
13:00 +23°C° 0 mm 2 mps 751 mmHg 46%
14:00 +23°C° 0 mm 2 mps 750 mmHg 47%
15:00 +23°C° 0 mm 2 mps 750 mmHg 49%
16:00 +23°C° 0 mm 2 mps 750 mmHg 50%
17:00 +20°C° 0 mm 2 mps 750 mmHg 58%
18:00 +19°C° 0 mm 2 mps 750 mmHg 65%
19:00 +18°C° 0 mm 2 mps 750 mmHg 73%
20:00 +16°C° 0 mm 2 mps 751 mmHg 77%
21:00 +15°C° 0 mm 2 mps 751 mmHg 82%
22:00 +13°C° 0 mm 2 mps 751 mmHg 86%
23:00 +13°C° 0 mm 2 mps 751 mmHg 87%

Tomorrow, 17 June, Thursday

Time Temperature Precipitation Wind Pressure Humidity
00:00 +12°C° 0 mm 2 mps 752 mmHg 88%
01:00 +12°C° 0 mm 2 mps 752 mmHg 89%
02:00 +12°C° 0 mm 2 mps 752 mmHg 89%
03:00 +12°C° 0 mm 2 mps 752 mmHg 88%
04:00 +12°C° 0 mm 2 mps 752 mmHg 88%
05:00 +14°C° 0 mm 2 mps 752 mmHg 81%
06:00 +16°C° 0 mm 2 mps 752 mmHg 74%
07:00 +18°C° 0 mm 3 mps 752 mmHg 67%
08:00 +20°C° 0 mm 3 mps 752 mmHg 61%
09:00 +21°C° 0 mm 3 mps 753 mmHg 55%
10:00 +24°C° 0 mm 3 mps 753 mmHg 49%
11:00 +25°C° 0 mm 4 mps 752 mmHg 46%
12:00 +25°C° 0 mm 4 mps 752 mmHg 43%
13:00 +26°C° 0 mm 4 mps 752 mmHg 41%
14:00 +26°C° 0 mm 4 mps 752 mmHg 43%
15:00 +26°C° 0 mm 4 mps 752 mmHg 45%
16:00 +26°C° 0 mm 3 mps 752 mmHg 47%
17:00 +24°C° 0 mm 3 mps 752 mmHg 55%
18:00 +22°C° 0 mm 3 mps 752 mmHg 62%
19:00 +20°C° 0 mm 2 mps 752 mmHg 70%
20:00 +19°C° 0 mm 2 mps 752 mmHg 75%
21:00 +18°C° 0 mm 2 mps 752 mmHg 81%
22:00 +16°C° 0 mm 2 mps 752 mmHg 86%
23:00 +16°C° 0 mm 3 mps 752 mmHg 88%

Day after tomorrow, 18 June, Friday

Time Temperature Precipitation Wind Pressure Humidity
00:00 +16°C° 0 mm 3 mps 752 mmHg 91%
01:00 +14°C° 0 mm 3 mps 752 mmHg 93%
02:00 +14°C° 0 mm 3 mps 752 mmHg 93%
03:00 +14°C° 0 mm 3 mps 752 mmHg 94%
04:00 +14°C° 0 mm 3 mps 752 mmHg 94%
05:00 +17°C° 0 mm 3 mps 752 mmHg 85%
06:00 +19°C° 0 mm 3 mps 752 mmHg 77%
07:00 +22°C° 0 mm 4 mps 752 mmHg 69%
08:00 +23°C° 0 mm 4 mps 752 mmHg 64%
09:00 +26°C° 0 mm 4 mps 752 mmHg 59%
10:00 +28°C° 0 mm 4 mps 752 mmHg 54%
11:00 +28°C° 0 mm 4 mps 751 mmHg 52%
12:00 +29°C° 0 mm 5 mps 751 mmHg 50%
13:00 +30°C° 0 mm 5 mps 751 mmHg 48%
14:00 +30°C° 0 mm 5 mps 751 mmHg 50%
15:00 +29°C° 0 mm 5 mps 751 mmHg 51%
16:00 +29°C° 0 mm 5 mps 750 mmHg 53%
17:00 +28°C° 0 mm 4 mps 750 mmHg 59%
18:00 +26°C° 0 mm 4 mps 750 mmHg 66%
19:00 +25°C° 0 mm 3 mps 750 mmHg 73%
20:00 +24°C° 0 mm 3 mps 751 mmHg 77%
21:00 +21°C° 0 mm 3 mps 751 mmHg 82%
22:00 +20°C° 0 mm 3 mps 751 mmHg 87%
23:00 +19°C° 0 mm 3 mps 751 mmHg 89%

19 June, Saturday

Time Temperature Precipitation Wind Pressure Humidity
00:00 +19°C° 0 mm 3 mps 751 mmHg 91%
01:00 +18°C° 0 mm 3 mps 751 mmHg 93%
02:00 +18°C° 0 mm 3 mps 751 mmHg 93%
03:00 +17°C° 0 mm 3 mps 751 mmHg 92%
04:00 +17°C° 0 mm 3 mps 751 mmHg 91%
05:00 +19°C° 0 mm 4 mps 751 mmHg 85%
06:00 +21°C° 0 mm 4 mps 751 mmHg 79%
07:00 +23°C° 0 mm 4 mps 751 mmHg 72%
08:00 +25°C° 0 mm 5 mps 751 mmHg 67%
09:00 +27°C° 0 mm 5 mps 751 mmHg 61%
10:00 +28°C° 0 mm 5 mps 751 mmHg 55%
11:00 +29°C° 0 mm 5 mps 750 mmHg 54%
12:00 +30°C° 0 mm 5 mps 750 mmHg 52%
13:00 +30°C° 0 mm 5 mps 750 mmHg 50%
14:00 +30°C° 0 mm 5 mps 750 mmHg 51%
15:00 +30°C° 0 mm 5 mps 750 mmHg 53%
16:00 +30°C° 0 mm 5 mps 749 mmHg 54%
17:00 +29°C° 0 mm 4 mps 749 mmHg 60%
18:00 +28°C° 0 mm 4 mps 749 mmHg 66%
19:00 +26°C° 0 mm 3 mps 749 mmHg 72%
20:00 +25°C° 0 mm 3 mps 749 mmHg 76%
21:00 +24°C° 0 mm 3 mps 750 mmHg 80%
22:00 +22°C° 0 mm 3 mps 750 mmHg 84%
23:00 +21°C° 0 mm 3 mps 750 mmHg 86%

20 June, Sunday

Time Temperature Precipitation Wind Pressure Humidity
00:00 +21°C° 0 mm 3 mps 750 mmHg 89%
01:00 +20°C° 0 mm 3 mps 750 mmHg 91%
02:00 +20°C° 0 mm 3 mps 750 mmHg 91%
03:00 +19°C° 0 mm 3 mps 750 mmHg 92%
04:00 +19°C° 0 mm 3 mps 750 mmHg 92%
05:00 +21°C° 0 mm 3 mps 750 mmHg 84%
06:00 +22°C° 0 mm 4 mps 750 mmHg 77%
07:00 +25°C° 0 mm 4 mps 750 mmHg 69%
08:00 +26°C° 0 mm 4 mps 750 mmHg 63%
09:00 +27°C° 0 mm 4 mps 750 mmHg 58%
10:00 +28°C° 0 mm 4 mps 750 mmHg 53%
11:00 +29°C° 0 mm 4 mps 750 mmHg 51%
12:00 +30°C° 0 mm 5 mps 749 mmHg 49%
13:00 +30°C° 0 mm 5 mps 749 mmHg 47%
14:00 +30°C° 0 mm 4 mps 749 mmHg 49%
15:00 +30°C° 0 mm 4 mps 749 mmHg 50%
16:00 +30°C° 0 mm 4 mps 748 mmHg 51%
17:00 +29°C° 0 mm 4 mps 748 mmHg 57%
18:00 +27°C° 0 mm 4 mps 748 mmHg 63%
19:00 +26°C° 0 mm 3 mps 748 mmHg 69%
20:00 +24°C° 0 mm 3 mps 748 mmHg 75%
21:00 +22°C° 0 mm 3 mps 748 mmHg 81%
22:00 +20°C° 0 mm 3 mps 748 mmHg 87%
23:00 +20°C° 0 mm 3 mps 748 mmHg 89%

21 June, Monday

Time Temperature Precipitation Wind Pressure Humidity
00:00 +19°C° 0 mm 3 mps 748 mmHg 91%
01:00 +19°C° 0 mm 3 mps 748 mmHg 92%
02:00 +19°C° 0 mm 3 mps 748 mmHg 93%
03:00 +19°C° 0 mm 3 mps 748 mmHg 93%
04:00 +19°C° 0 mm 3 mps 748 mmHg 93%
05:00 +21°C° 0 mm 4 mps 748 mmHg 86%
06:00 +22°C° 0 mm 4 mps 748 mmHg 78%
07:00 +25°C° 0 mm 5 mps 748 mmHg 71%
08:00 +26°C° 0 mm 5 mps 748 mmHg 65%
09:00 +28°C° 0 mm 6 mps 748 mmHg 59%
10:00 +29°C° 0 mm 6 mps 747 mmHg 53%
11:00 +30°C° 0 mm 6 mps 747 mmHg 51%
12:00 +30°C° 0 mm 6 mps 747 mmHg 49%
13:00 +32°C° 0 mm 6 mps 747 mmHg 47%
14:00 +30°C° 0 mm 6 mps 746 mmHg 48%
15:00 +30°C° 0 mm 5 mps 746 mmHg 49%
16:00 +30°C° 0 mm 5 mps 746 mmHg 50%
17:00 +29°C° 0 mm 5 mps 746 mmHg 56%
18:00 +27°C° 0 mm 4 mps 746 mmHg 62%
19:00 +26°C° 0 mm 4 mps 746 mmHg 67%
20:00 +25°C° 0 mm 4 mps 745 mmHg 71%
21:00 +22°C° 0 mm 4 mps 745 mmHg 75%
22:00 +21°C° 0 mm 4 mps 745 mmHg 79%
23:00 +20°C° 0 mm 3 mps 745 mmHg 81%
Show more